Location: ????? ????
(37.9717°N, 23.4051°E)
Time: 12:14:45
(UTC+00:00)

Cosmos 1763 Rocket - Pass Details

Date: 18 April 2024
Orbit: 730 x 778 km, 74.0° (Epoch: 18 May)

Event Time Altitude Azimuth Distance (km) Brightness Sun altitude
Exits shadow 19:17:47 54° 69° (ENE) 890 3.6 -24.1°
Drops below altitude 10° 19:22:07 10° 26° (NNE) 2,260 6.1 -24.8°
Sets 19:24:31 0° 23° (NNE) 3,194 6.9 -25.1°
